Weather History for Mineral Wells, TX

Change the Weather History Date:

Thursday, February 21, 2013

  Actual Average Record
Temperature  
Mean Temperature 52 °F -  
Max Temperature 64 °F 59 °F 80 °F (2005)
Min Temperature 37 °F 38 °F 28 °F (2014)
Degree Days  
Heating Degree Days 14    
Growing Degree Days 2 (Base 50)    
Moisture  
Dew Point 39 °F    
Average Humidity 81    
Maximum Humidity 100    
Minimum Humidity 22    
Precipitation  
Precipitation 0.18 in - - ()
Sea Level Pressure  
Sea Level Pressure 29.70 in    
Wind  
Wind Speed 13 mph (NW)    
Max Wind Speed 25 mph    
Max Gust Speed 34 mph    
Visibility 6 miles    
Events Rain , Thunderstorm    
Averages and records for this station are not official NWS values.
T = Trace of Precipitation, MM = Missing Value Source: NWS Daily Summary

Daily Weather History Graph

Daily Weather History Graph

Search for Another Location

Airport:

Trip Planner

Search our weather history database for the weather conditions in past years. The results will help you decide how hot, cold, wet, or windy it might be!

Date:

Astronomy

Feb. 21, 2013 Rise Set
Actual Time 7:08 AM CST 6:23 PM CST
Civil Twilight 6:43 AM CST 6:48 PM CST
Nautical Twilight 6:15 AM CST 7:16 PM CST
Astronomical Twilight 5:46 AM CST 7:45 PM CST
Moon 2:47 PM CST (2/21) 4:05 AM CST (2/21)
Length of Visible Light 12h 04m
Length of Day
11h 14m
Waxing Gibbous, 84% of the Moon is Illuminated
Feb 21
Waxing Gibbous
Feb 25
Full
Mar 4
Last Quarter
Mar 11
New
Mar 19
First Quarter

Hourly Weather History & Observations

Time (CST) Temp. Windchill Dew Point Humidity Pressure Visibility Wind Dir Wind Speed Gust Speed Precip Events Conditions
12:53 AM 42.1 °F 35.2 °F 37.0 °F 82% 29.74 in 10.0 mi ESE 12.7 mph - 0.00 in   Overcast
1:28 AM 41.0 °F 33.9 °F 37.4 °F 87% 29.75 in 3.0 mi ESE 12.7 mph - 0.00 in Rain Light Rain
1:48 AM 39.2 °F 31.6 °F 39.2 °F 100% 29.72 in 2.0 mi ESE 12.7 mph - 0.00 in Rain Light Rain
1:53 AM 39.9 °F 32.9 °F 39.0 °F 97% 29.71 in 2.5 mi ESE 11.5 mph - 0.00 in Rain Light Rain
2:19 AM 39.2 °F 30.8 °F 39.2 °F 100% 29.69 in 2.5 mi East 15.0 mph - 0.00 in   Overcast
2:28 AM 39.2 °F 31.2 °F 39.2 °F 100% 29.69 in 3.0 mi ESE 13.8 mph - 0.00 in   Overcast
2:53 AM 39.9 °F 32.1 °F 39.0 °F 97% 29.66 in 4.0 mi East 13.8 mph - 0.00 in   Overcast
3:34 AM 39.2 °F 31.6 °F 39.2 °F 100% 29.63 in 2.5 mi ESE 12.7 mph - 0.00 in Rain Light Rain
3:53 AM 41.0 °F 33.5 °F 39.9 °F 96% 29.62 in 2.0 mi ESE 13.8 mph - 0.00 in   Overcast
4:05 AM 41.0 °F 33.5 °F 39.2 °F 93% 29.61 in 1.8 mi ESE 13.8 mph - 0.01 in   Overcast
4:29 AM 42.8 °F 37.5 °F 41.0 °F 93% 29.62 in 2.0 mi ESE 9.2 mph - 0.01 in   Overcast
4:53 AM 42.8 °F 35.1 °F 41.0 °F 93% 29.60 in 1.2 mi ESE 16.1 mph - N/A   Overcast
5:12 AM 42.8 °F 34.5 °F 41.0 °F 93% 29.57 in 1.2 mi SE 18.4 mph - N/A   Overcast
5:53 AM 44.1 °F 37.4 °F 44.1 °F 100% 29.57 in 1.2 mi SE 13.8 mph - 0.00 in   Overcast
6:24 AM 44.6 °F 37.2 °F 44.6 °F 100% 29.63 in 0.8 mi WNW 17.3 mph 21.9 mph N/A Thunderstorm Overcast
6:33 AM 44.6 °F 35.7 °F 42.8 °F 93% 29.68 in 1.2 mi WNW 24.2 mph 31.1 mph 0.01 in Rain , Thunderstorm Light Rain
6:38 AM 44.6 °F 37.2 °F 42.8 °F 93% 29.69 in 1.2 mi WNW 17.3 mph 31.1 mph 0.03 in Rain , Thunderstorm Thunderstorms and Rain
6:51 AM 44.6 °F 40.7 °F 42.8 °F 93% 29.67 in 1.5 mi NW 6.9 mph 24.2 mph 0.16 in Rain , Thunderstorm Thunderstorms and Rain
6:53 AM 44.1 °F 40.1 °F 43.0 °F 96% 29.66 in 1.5 mi NW 6.9 mph 18.4 mph 0.17 in Rain , Thunderstorm Heavy Thunderstorms and Rain
7:01 AM 44.6 °F 40.7 °F 44.6 °F 100% 29.66 in 3.0 mi North 6.9 mph - N/A Rain , Thunderstorm Light Thunderstorms and Rain
7:10 AM 44.6 °F 40.7 °F 42.8 °F 93% 29.68 in 10.0 mi North 6.9 mph - 0.01 in Rain , Thunderstorm Light Rain
7:17 AM 44.6 °F 41.4 °F 44.6 °F 100% 29.67 in 10.0 mi NE 5.8 mph - 0.01 in   Overcast
7:31 AM 44.6 °F 42.2 °F 44.6 °F 100% 29.68 in 5.0 mi North 4.6 mph - 0.01 in Rain Light Rain
7:53 AM 44.1 °F 40.8 °F 44.1 °F 100% 29.67 in 7.0 mi NW 5.8 mph - 0.01 in   Overcast
8:28 AM 44.6 °F 43.1 °F 44.6 °F 100% 29.70 in 10.0 mi North 3.5 mph - N/A   Mostly Cloudy
8:51 AM 46.4 °F - 44.6 °F 93% 29.70 in 10.0 mi Calm Calm - N/A   Overcast
8:53 AM 46.9 °F - 44.1 °F 90% 29.70 in 10.0 mi Calm Calm - N/A   Overcast
9:53 AM 46.0 °F 41.9 °F 44.1 °F 93% 29.72 in 10.0 mi West 8.1 mph - N/A   Overcast
10:28 AM 48.2 °F - 44.6 °F 87% 29.73 in 10.0 mi West 10.4 mph - N/A   Mostly Cloudy
10:41 AM 48.2 °F - 41.0 °F 76% 29.74 in 10.0 mi West 17.3 mph - N/A   Scattered Clouds
10:53 AM 48.9 °F - 42.1 °F 77% 29.74 in 10.0 mi West 15.0 mph - N/A   Partly Cloudy
11:53 AM 54.0 °F - 41.0 °F 62% 29.72 in 10.0 mi West 12.7 mph - N/A   Clear
12:53 PM 61.0 °F - 33.1 °F 35% 29.68 in 10.0 mi WSW 21.9 mph 28.8 mph N/A   Clear
1:53 PM 64.0 °F - 26.1 °F 24% 29.65 in 10.0 mi West 21.9 mph 34.5 mph N/A   Clear
2:53 PM 64.9 °F - 25.0 °F 22% 29.65 in 10.0 mi West 25.3 mph 34.5 mph N/A   Clear
3:53 PM 64.0 °F - 28.9 °F 27% 29.68 in 10.0 mi West 19.6 mph 34.5 mph N/A   Clear
4:53 PM 64.0 °F - 30.9 °F 29% 29.71 in 10.0 mi West 15.0 mph 25.3 mph N/A   Clear
5:53 PM 61.0 °F - 30.9 °F 32% 29.73 in 10.0 mi West 12.7 mph - N/A   Clear
6:53 PM 54.0 °F - 34.0 °F 47% 29.77 in 10.0 mi SW 5.8 mph - N/A   Clear
7:53 PM 54.0 °F - 39.0 °F 57% 29.83 in 10.0 mi NNW 15.0 mph 19.6 mph N/A   Clear
8:53 PM 48.2 °F - 39.2 °F 71% 29.88 in 10.0 mi North 16.1 mph 19.6 mph N/A   Clear
9:53 PM 45.0 °F 38.5 °F 37.0 °F 74% 29.91 in 10.0 mi NNW 13.8 mph 20.7 mph N/A   Clear
10:53 PM 42.1 °F 35.7 °F 34.0 °F 73% 29.95 in 10.0 mi NNW 11.5 mph - N/A   Clear
11:53 PM 37.9 °F 27.9 °F 32.0 °F 79% 29.94 in 10.0 mi North 19.6 mph 25.3 mph N/A   Clear